FW3031 Weather Reports


time (UTC)temp
C
wind
direction
speed
KPH
gust
KPH
rain 1hr
cm
rain 24hr
cm
rain mn
cm
humidity
%
barometer
mb
20260903165513 28 190 3.2 12.9 0.00 0.00 0.00 61 1016.8
20260903165012 28 190 3.2 11.3 0.00 0.00 0.00 62 1016.9
20260903164610 28 190 4.8 9.7 0.00 0.00 0.00 64 1014.3
20260903164510 28 190 3.2 9.7 0.00 0.00 0.00 64 1017.0
20260903164012 28 190 1.6 8.0 0.00 0.00 0.00 63 1017.1
20260903163508 28 190 1.6 6.4 0.00 0.00 0.00 64 1017.1
20260903163102 28 190 0.0 6.4 0.00 0.00 0.00 64 1014.4
20260903163010 27 190 0.0 6.4 0.00 0.00 0.00 65 1017.2
20260903162507 27 190 0.0 6.4 0.00 0.00 0.00 67 1017.2
20260903162006 27 190 3.2 6.4 0.00 0.00 0.00 67 1017.3
20260903161607 27 190 0.0 4.8 0.00 0.00 0.00 68 1014.5
20260903161504 27 190 0.0 4.8 0.00 0.00 0.00 69 1017.4
20260903161003 27 190 1.6 4.8 0.00 0.00 0.00 69 1017.4
20260903160501 26 190 0.0 0.0 0.00 0.00 0.00 69 1017.4
20260903160111 26 0 0.0 4.8 0.00 0.00 0.00 68 1014.6
20260903160101 26 190 0.0 4.8 0.00 0.00 0.00 69 1017.4
20260903155558 26 190 1.6 4.8 0.00 0.00 0.00 69 1017.5
20260903155200 26 190 0.0 3.2 0.00 0.00 0.00 69 1017.6
20260903154605 25 0 0.0 0.0 0.00 0.00 0.00 71 1014.6
20260903154559 25 190 0.0 0.0 0.00 0.00 0.00 71 1017.5
20260903154055 25 190 0.0 0.0 0.00 0.00 0.00 71 1017.5
20260903153554 25 190 0.0 0.0 0.00 0.00 0.00 72 1017.5
20260903153112 25 0 0.0 0.0 0.00 0.00 0.00 72 1014.6
20260903153053 25 190 0.0 0.0 0.00 0.00 0.00 73 1017.6
20260903152555 25 190 0.0 0.0 0.00 0.00 0.00 73 1017.7
20260903152051 25 190 0.0 0.0 0.00 0.00 0.00 75 1017.7
20260903151605 24 0 0.0 1.6 0.00 0.00 0.00 75 1014.7
20260903151552 24 190 0.0 1.6 0.00 0.00 0.00 76 1017.8
20260903151050 23 190 0.0 1.6 0.00 0.00 0.00 76 1017.9
20260903150547 23 190 0.0 0.0 0.00 0.00 0.00 79 1017.9
20260903150109 23 0 0.0 0.0 0.00 0.00 0.00 78 1014.9
20260903150046 23 190 0.0 0.0 0.00 0.00 0.00 78 1018.1
20260903145547 23 190 0.0 0.0 0.00 0.00 0.00 81 1018.0
20260903145042 23 190 0.0 0.0 0.00 0.00 0.00 82 1018.0
20260903144608 22 0 0.0 0.0 0.00 0.00 0.00 82 1014.9
20260903144543 22 190 0.0 0.0 0.00 0.00 0.00 82 1018.0
20260903144039 22 190 0.0 0.0 0.00 0.00 0.00 83 1018.0
20260903143538 22 190 0.0 0.0 0.00 0.00 0.00 86 1018.0
20260903143105 22 0 0.0 0.0 0.00 0.00 0.00 86 1014.9
20260903143038 22 190 0.0 0.0 0.00 0.00 0.00 86 1017.9
20260903142539 21 190 0.0 0.0 0.00 0.00 0.00 86 1018.0
20260903142037 21 190 0.0 1.6 0.00 0.00 0.00 89 1018.1
20260903141602 21 0 0.0 1.6 0.00 0.00 0.00 89 1015.0
20260903141533 21 190 0.0 1.6 0.00 0.00 0.00 89 1018.1
20260903141032 21 190 0.0 0.0 0.00 0.00 0.00 91 1018.1
20260903140531 20 190 0.0 0.0 0.00 0.00 0.00 91 1017.9
20260903140105 20 0 0.0 4.8 0.00 0.00 0.00 91 1014.8
20260903140048 20 190 0.0 3.2 0.00 0.00 0.00 91 1017.8
20260903135530 20 190 0.0 4.8 0.00 0.00 0.00 92 1017.8
20260903135030 20 190 0.0 3.2 0.00 0.00 0.00 92 1017.8
20260903134601 20 0 0.0 0.0 0.00 0.00 0.00 93 1014.7
20260903134533 20 190 0.0 0.0 0.00 0.00 0.00 93 1017.7
20260903134031 19 190 0.0 0.0 0.00 0.00 0.00 94 1017.8
20260903133530 19 190 0.0 0.0 0.00 0.00 0.00 94 1017.8
20260903133111 19 0 0.0 0.0 0.00 0.00 0.00 93 1014.7
20260903133030 19 190 0.0 0.0 0.00 0.00 0.00 94 1017.8
20260903132529 19 190 0.0 0.0 0.00 0.00 0.00 94 1017.8
20260903132029 19 190 0.0 0.0 0.00 0.00 0.00 94 1017.9
20260903131606 19 0 0.0 0.0 0.00 0.00 0.00 94 1014.9
20260903131529 19 190 0.0 0.0 0.00 0.00 0.00 94 1017.9
20260903131029 19 190 0.0 0.0 0.00 0.00 0.00 95 1017.9
20260903130528 19 190 0.0 0.0 0.00 0.00 0.00 95 1017.9
20260903130131 19 0 0.0 0.0 0.00 0.00 0.00 94 1014.9
20260903130031 19 190 0.0 0.0 0.00 0.00 0.00 95 1017.9
20260903125528 18 190 0.0 0.0 0.00 0.00 0.00 95 1017.9
20260903125028 18 190 0.0 0.0 0.00 0.00 0.00 95 1017.8
20260903124607 18 0 0.0 0.0 0.00 0.00 0.00 94 1014.8
20260903124527 18 190 0.0 0.0 0.00 0.00 0.00 94 1017.8
20260903124028 18 190 0.0 0.0 0.00 0.00 0.00 94 1017.7
20260903123527 18 190 0.0 1.6 0.00 0.00 0.00 94 1017.7
20260903123109 18 0 0.0 1.6 0.00 0.00 0.00 94 1014.5
20260903123035 18 190 0.0 1.6 0.00 0.00 0.00 94 1017.6
20260903122527 18 190 0.0 0.0 0.00 0.00 0.00 94 1017.5
20260903122025 19 190 0.0 0.0 0.00 0.00 0.00 94 1017.5
20260903121605 19 0 0.0 0.0 0.00 0.00 0.00 94 1014.3
20260903121528 19 190 0.0 0.0 0.00 0.00 0.00 94 1017.3
20260903121025 19 190 0.0 0.0 0.00 0.00 0.00 94 1017.3
20260903120525 19 190 0.0 0.0 0.00 0.00 0.00 95 1017.2
20260903120106 19 0 0.0 0.0 0.00 0.00 0.00 94 1014.2
20260903120025 19 190 0.0 0.0 0.00 0.00 0.00 95 1017.3
20260903115526 19 190 0.0 0.0 0.00 0.00 0.00 95 1017.3
20260903115024 19 190 0.0 0.0 0.00 0.00 0.00 94 1017.2
20260903114607 19 0 0.0 0.0 0.00 0.00 0.00 94 1014.0
20260903114530 19 190 0.0 0.0 0.00 0.00 0.00 94 1017.1
20260903114022 19 190 0.0 0.0 0.00 0.00 0.00 94 1017.1
20260903113522 19 190 0.0 0.0 0.00 0.00 0.00 94 1017.1
20260903113106 19 0 0.0 0.0 0.00 0.00 0.00 93 1013.9
20260903113023 19 190 0.0 0.0 0.00 0.00 0.00 94 1017.0
20260903112524 19 190 0.0 0.0 0.00 0.00 0.00 94 1017.0
20260903112021 19 190 0.0 1.6 0.00 0.00 0.00 94 1017.0
20260903111621 19 0 0.0 1.6 0.00 0.00 0.00 93 1013.9
20260903111521 19 190 0.0 1.6 0.00 0.00 0.00 94 1017.0
20260903111020 19 190 0.0 0.0 0.00 0.00 0.00 94 1017.0
20260903110520 19 190 0.0 0.0 0.00 0.00 0.00 94 1016.9
20260903110127 20 0 0.0 0.0 0.00 0.00 0.00 94 1013.8
20260903110019 19 190 0.0 0.0 0.00 0.00 0.00 94 1017.0
20260903105518 19 190 0.0 0.0 0.00 0.00 0.00 94 1017.0
20260903105018 20 190 0.0 0.0 0.00 0.00 0.00 94 1016.9
20260903104605 20 0 0.0 0.0 0.00 0.00 0.00 93 1013.8
20260903104518 20 190 0.0 0.0 0.00 0.00 0.00 94 1017.0
20260903104018 20 190 0.0 0.0 0.00 0.00 0.00 94 1017.0
20260903103517 20 190 0.0 0.0 0.00 0.00 0.00 94 1017.0
20260903103104 20 0 0.0 0.0 0.00 0.00 0.00 93 1013.8
20260903103017 20 190 0.0 0.0 0.00 0.00 0.00 94 1017.0
20260903102517 20 190 0.0 0.0 0.00 0.00 0.00 94 1017.0
20260903102022 20 190 0.0 0.0 0.00 0.00 0.00 94 1017.0
20260903101611 20 0 0.0 0.0 0.00 0.00 0.00 93 1013.8
20260903101517 20 190 0.0 0.0 0.00 0.00 0.00 94 1017.0
20260903101019 20 190 0.0 0.0 0.00 0.00 0.00 94 1016.9
20260903100517 20 190 0.0 0.0 0.00 0.00 0.00 94 1016.8
20260903100110 20 0 0.0 0.0 0.00 0.00 0.00 94 1013.7
20260903100026 20 190 0.0 0.0 0.00 0.00 0.00 94 1016.8
20260903095515 20 190 0.0 0.0 0.00 0.00 0.00 94 1016.8
20260903095015 20 190 0.0 3.2 0.00 0.00 0.00 94 1016.8
20260903094604 20 0 0.0 3.2 0.00 0.00 0.00 93 1013.6
20260903094515 20 190 0.0 3.2 0.00 0.00 0.00 94 1016.8
20260903094014 20 190 0.0 0.0 0.00 0.00 0.00 93 1016.7
20260903093514 20 190 0.0 0.0 0.00 0.00 0.00 93 1016.8
20260903093105 20 0 0.0 0.0 0.00 0.00 0.00 93 1013.7
20260903093035 20 190 0.0 0.0 0.00 0.00 0.00 93 1016.8
20260903092512 20 190 0.0 0.0 0.00 0.00 0.00 94 1016.9
20260903092012 20 190 0.0 0.0 0.00 0.00 0.00 94 1017.0
20260903091614 20 0 0.0 0.0 0.00 0.00 0.00 93 1013.9
20260903091512 20 190 0.0 0.0 0.00 0.00 0.00 93 1017.0
20260903091011 20 190 0.0 0.0 0.00 0.00 0.00 93 1017.1
20260903090515 20 190 0.0 0.0 0.00 0.00 0.00 93 1017.1
20260903090108 20 0 0.0 0.0 0.00 0.00 0.00 93 1013.9
20260903090011 20 190 0.0 0.0 0.00 0.00 0.00 93 1017.1
20260903085510 20 190 0.0 0.0 0.00 0.00 0.00 93 1017.1
20260903085009 20 190 0.0 0.0 0.00 0.00 0.00 93 1017.2
20260903084604 20 0 0.0 0.0 0.00 0.00 0.00 93 1014.0
20260903084517 20 190 0.0 0.0 0.00 0.00 0.00 93 1017.2
20260903084008 20 190 0.0 1.6 0.00 0.00 0.00 93 1017.1
20260903083508 20 190 0.0 1.6 0.00 0.00 0.00 93 1017.2
20260903083118 20 0 0.0 0.0 0.00 0.00 0.00 92 1014.0
20260903083008 20 190 0.0 0.0 0.00 0.00 0.00 92 1017.2
20260903082507 20 190 0.0 0.0 0.00 0.00 0.00 92 1017.1
20260903082007 20 190 0.0 0.0 0.00 0.00 0.00 92 1017.2
20260903081623 20 0 0.0 0.0 0.00 0.00 0.00 92 1014.0
20260903081508 20 190 0.0 0.0 0.00 0.00 0.00 92 1017.1
20260903081006 20 190 0.0 0.0 0.00 0.00 0.00 92 1017.3
20260903080506 20 190 0.0 0.0 0.00 0.00 0.00 92 1017.4
20260903080109 20 0 0.0 0.0 0.00 0.00 0.00 92 1014.3
20260903080005 20 190 0.0 0.0 0.00 0.00 0.00 92 1017.4
20260903075505 20 190 0.0 0.0 0.00 0.03 0.00 92 1017.3
20260903075003 20 190 0.0 0.0 0.00 0.03 0.00 92 1017.5
20260903074611 20 0 0.0 0.0 0.00 0.00 0.00 92 1014.2
20260903074508 20 190 0.0 0.0 0.00 0.03 0.00 92 1017.4
20260903074003 20 190 0.0 3.2 0.00 0.03 0.00 93 1017.4
20260903073503 20 190 0.0 3.2 0.00 0.03 0.00 93 1017.5
20260903073119 20 0 0.0 3.2 0.00 0.00 0.00 93 1014.5
20260903073002 20 190 0.0 3.2 0.00 0.03 0.00 93 1017.6
20260903072502 20 190 0.0 3.2 0.00 0.03 0.00 93 1017.7
20260903072003 20 190 0.0 3.2 0.00 0.03 0.00 93 1017.6
20260903071603 20 190 0.0 3.2 0.00 0.00 0.00 93 1014.5
20260903071504 20 190 0.0 3.2 0.00 0.03 0.00 93 1017.5
20260903071002 20 190 0.0 0.0 0.00 0.03 0.00 93 1017.6
20260903070502 20 190 0.0 3.2 0.00 0.03 0.00 93 1017.6
20260903070111 20 0 0.0 4.8 0.00 0.00 0.00 92 1014.5
20260903070101 20 190 0.0 3.2 0.00 0.03 0.00 93 1017.6
20260903065602 20 190 0.0 4.8 0.00 0.10 0.00 93 1017.6
20260903065058 20 190 1.6 4.8 0.00 0.10 0.00 93 1017.6
20260903064605 20 0 0.0 3.2 0.00 0.08 0.00 92 1014.4
20260903064558 20 190 0.0 3.2 0.00 0.10 0.00 93 1017.5
20260903064057 20 190 0.0 3.2 0.00 0.10 0.00 93 1017.6
20260903063557 20 190 0.0 0.0 0.00 0.10 0.00 93 1017.5
20260903063103 20 0 0.0 0.0 0.00 0.08 0.00 92 1014.5
20260903063056 20 190 0.0 0.0 0.00 0.10 0.00 93 1017.5
20260903062555 20 190 0.0 0.0 0.00 0.10 0.00 93 1017.7
20260903062054 20 190 0.0 0.0 0.00 0.10 0.00 92 1017.8
20260903061609 20 0 0.0 0.0 0.00 0.08 0.00 92 1014.8
20260903061553 20 190 0.0 0.0 0.00 0.10 0.00 92 1017.9
20260903061051 20 190 0.0 0.0 0.00 0.10 0.00 92 1017.9
20260903060551 20 190 0.0 0.0 0.00 0.10 0.00 92 1018.0
20260903060108 20 0 0.0 0.0 0.00 0.08 0.00 92 1014.9
20260903060051 20 190 0.0 0.0 0.00 0.10 0.00 92 1017.9
20260903055549 20 190 0.0 0.0 0.00 0.46 0.10 92 1017.8
20260903055049 20 190 0.0 0.0 0.00 0.46 0.10 92 1017.8
20260903054606 20 0 0.0 4.8 0.00 0.46 0.08 91 1014.9
20260903054550 20 190 0.0 3.2 0.00 0.46 0.10 92 1018.0
20260903054051 20 190 0.0 6.4 0.00 0.46 0.10 92 1018.1
20260903053549 20 190 1.6 6.4 0.00 0.46 0.10 92 1018.0
20260903053113 21 190 1.6 4.8 0.00 0.46 0.08 91 1014.9
20260903053049 21 190 1.6 6.4 0.00 0.46 0.10 92 1018.0
20260903052549 21 190 0.0 0.0 0.00 0.46 0.10 91 1017.8
20260903052048 21 190 0.0 0.0 0.00 0.46 0.10 91 1017.9
20260903051611 21 0 0.0 0.0 0.00 0.46 0.08 91 1014.9
20260903051554 21 190 0.0 0.0 0.00 0.46 0.10 91 1017.9
20260903051050 21 190 0.0 0.0 0.00 0.46 0.10 91 1017.8
20260903050550 21 190 0.0 0.0 0.00 0.46 0.10 91 1017.8
20260903050111 21 0 0.0 4.8 0.00 0.46 0.08 91 1014.9
20260903050049 21 190 0.0 4.8 0.00 0.46 0.10 91 1017.9
20260903045548 21 190 1.6 4.8 0.00 0.71 0.10 91 1017.9
20260903045050 21 190 0.0 0.0 0.00 0.71 0.10 91 1018.0
20260903044607 21 0 0.0 1.6 0.00 0.74 0.08 90 1015.0
20260903044549 21 190 0.0 0.0 0.00 0.71 0.10 90 1017.9
20260903044048 21 190 0.0 1.6 0.00 0.71 0.10 90 1017.8
20260903043547 21 190 0.0 1.6 0.00 0.71 0.10 90 1017.6
20260903043107 21 0 0.0 0.0 0.00 0.74 0.08 90 1014.9
20260903043047 21 190 0.0 0.0 0.00 0.71 0.10 90 1017.7
20260903042547 21 190 0.0 0.0 0.00 0.71 0.10 90 1017.7
20260903042047 21 190 0.0 0.0 0.00 0.71 0.10 90 1017.6
20260903041608 21 0 0.0 0.0 0.00 0.74 0.08 89 1014.6
20260903041547 21 190 0.0 0.0 0.00 0.71 0.10 90 1017.4
20260903041046 21 190 0.0 0.0 0.00 0.71 0.10 89 1017.3
20260903040547 21 190 0.0 0.0 0.00 0.71 0.10 89 1017.3
20260903040108 21 0 0.0 0.0 0.00 0.74 0.08 89 1014.7
20260903040047 21 190 0.0 0.0 0.00 0.71 0.10 89 1017.4
20260903035545 21 190 0.0 0.0 0.00 2.39 0.10 89 1017.4
20260903035045 22 190 0.0 0.0 0.00 2.39 0.10 89 1017.4
20260903034559 22 0 0.0 0.0 0.00 2.39 0.08 88 1014.6
20260903034545 22 190 0.0 0.0 0.00 2.39 0.10 88 1017.3
20260903034046 22 190 0.0 0.0 0.00 2.39 0.10 89 1017.2
20260903033545 22 190 0.0 0.0 0.00 2.39 0.10 88 1017.1
20260903033113 22 0 0.0 0.0 0.00 2.39 0.08 88 1014.4
20260903033045 22 190 0.0 0.0 0.00 2.39 0.10 88 1017.0
20260903032545 22 190 0.0 0.0 0.00 2.39 0.10 87 1016.8
20260903032045 22 190 0.0 0.0 0.00 2.39 0.10 87 1016.8
20260903031604 22 0 0.0 0.0 0.00 2.39 0.08 86 1014.1
20260903031545 22 190 0.0 0.0 0.00 2.39 0.10 87 1016.7
20260903031045 22 190 0.0 0.0 0.00 2.39 0.10 86 1016.6
20260903030546 22 190 0.0 0.0 0.00 2.39 0.10 86 1016.6
20260903030104 22 0 0.0 0.0 0.00 2.39 0.08 85 1013.9
20260903030045 22 190 0.0 0.0 0.00 2.39 0.10 86 1016.4
20260903025544 22 190 0.0 0.0 0.00 2.49 0.10 85 1016.3
20260903025044 22 190 0.0 0.0 0.00 2.49 0.10 84 1016.4
20260903024601 23 0 0.0 0.0 0.00 2.46 0.08 83 1013.7
20260903024545 23 190 0.0 0.0 0.00 2.49 0.10 84 1016.4
20260903024043 23 190 0.0 0.0 0.00 2.49 0.10 83 1016.2
20260903023547 23 190 0.0 0.0 0.00 2.49 0.10 83 1016.2
20260903023106 23 0 0.0 0.0 0.00 2.46 0.08 82 1013.5
20260903023044 23 190 0.0 0.0 0.00 2.49 0.10 82 1016.1
20260903022543 23 190 0.0 0.0 0.00 2.49 0.10 82 1015.9
20260903022043 23 190 0.0 0.0 0.00 2.49 0.10 81 1015.9
20260903021610 23 0 0.0 0.0 0.00 2.46 0.08 81 1013.2
20260903021545 23 190 0.0 0.0 0.00 2.49 0.10 81 1015.8
20260903021043 23 190 0.0 0.0 0.00 2.49 0.10 81 1015.6
20260903020542 23 190 0.0 1.6 0.00 2.49 0.10 81 1015.6
20260903020105 23 0 0.0 3.2 0.00 2.46 0.08 81 1012.9
20260903020042 23 190 0.0 1.6 0.00 2.49 0.10 81 1015.4
20260903015542 23 190 0.0 3.2 0.00 2.49 0.10 81 1015.3
20260903015041 23 190 0.0 3.2 0.00 2.49 0.10 81 1015.2
20260903014604 23 0 0.0 0.0 0.00 2.46 0.08 80 1012.6
20260903014554 23 190 0.0 0.0 0.00 2.49 0.10 80 1015.2
20260903014042 23 190 0.0 0.0 0.00 2.49 0.10 80 1015.2
20260903013542 23 190 0.0 0.0 0.00 2.49 0.10 79 1015.1
20260903013106 24 0 0.0 4.8 0.00 2.46 0.08 78 1012.4
20260903013042 24 190 0.0 3.2 0.00 2.49 0.10 79 1014.9
20260903012541 24 190 0.0 4.8 0.00 2.49 0.10 78 1014.8
20260903012041 24 190 1.6 4.8 0.00 2.49 0.10 78 1014.7
20260903011617 24 0 0.0 6.4 0.00 2.46 0.08 77 1012.0
20260903011541 24 190 0.0 6.4 0.00 2.49 0.10 77 1014.6
20260903011042 25 190 0.0 6.4 0.00 2.49 0.10 76 1014.5
20260903010540 25 190 1.6 4.8 0.00 2.49 0.10 76 1014.3
20260903010120 25 0 0.0 0.0 0.00 2.46 0.08 75 1011.8
20260903010040 25 190 0.0 0.0 0.00 2.49 0.10 75 1014.3
20260903005542 25 190 0.0 0.0 0.00 2.49 0.10 75 1014.3
20260903005040 25 190 0.0 0.0 0.00 2.49 0.10 74 1014.2
20260903004610 25 0 0.0 0.0 0.00 2.46 0.08 72 1011.6
20260903004539 25 190 0.0 0.0 0.00 2.49 0.10 73 1014.2
20260903004043 25 190 0.0 0.0 0.00 2.49 0.10 71 1014.2
20260903003539 26 190 0.0 3.2 0.00 2.49 0.10 71 1014.1
20260903003116 26 0 0.0 4.8 0.00 2.46 0.08 69 1011.4
20260903003039 26 190 0.0 4.8 0.00 2.49 0.10 70 1014.0
20260903002539 26 190 1.6 4.8 0.00 2.49 0.10 67 1014.0
20260903002040 26 190 1.6 4.8 0.00 2.49 0.10 66 1014.0
20260903001608 26 190 1.6 6.4 0.00 2.46 0.08 64 1011.5
20260903001540 26 190 0.0 4.8 0.00 2.49 0.10 65 1014.0
20260903001039 26 190 0.0 9.7 0.00 2.49 0.10 68 1014.0
20260903000540 27 190 1.6 9.7 0.00 2.49 0.10 67 1013.9
20260903000107 27 190 4.8 9.7 0.00 2.46 0.08 65 1011.4
20260903000039 27 190 3.2 9.7 0.00 2.49 0.10 66 1013.9
20260902235538 27 190 3.2 9.7 0.00 2.49 0.10 65 1013.8
20260902235038 27 190 3.2 6.4 0.00 2.49 0.10 61 1013.8
20260902234601 27 190 1.6 8.0 0.00 2.46 0.08 59 1011.4
20260902234538 27 190 1.6 6.4 0.00 2.49 0.10 59 1013.9
20260902234037 27 190 0.0 8.0 0.00 2.49 0.10 58 1013.9
20260902233540 27 190 3.2 8.0 0.00 2.49 0.10 57 1013.8
20260902233106 28 190 3.2 6.4 0.00 2.46 0.08 59 1011.3
20260902233037 28 190 1.6 6.4 0.00 2.49 0.10 60 1013.7
20260902232537 28 190 3.2 6.4 0.00 2.49 0.10 59 1013.7
20260902232036 28 190 3.2 6.4 0.00 2.49 0.10 58 1013.7
20260902231606 28 190 3.2 8.0 0.00 2.46 0.08 57 1011.3
20260902231536 28 190 1.6 8.0 0.00 2.49 0.10 58 1013.6
20260902231037 28 190 3.2 8.0 0.00 2.49 0.10 58 1013.5
20260902230537 28 190 1.6 6.4 0.00 2.49 0.10 59 1013.5
20260902230101 29 190 0.0 6.4 0.00 2.46 0.08 58 1011.1
20260902230034 29 190 1.6 6.4 0.00 2.49 0.10 59 1013.5
20260902225534 29 190 0.0 4.8 0.00 2.49 0.10 58 1013.4
20260902225032 28 190 0.0 6.4 0.00 2.49 0.10 58 1013.4
20260902224600 28 190 0.0 8.0 0.00 2.46 0.08 58 1011.1
20260902224532 28 190 0.0 8.0 0.00 2.49 0.10 58 1013.4
20260902224032 28 190 0.0 8.0 0.00 2.49 0.10 59 1013.4
20260902223530 28 190 3.2 8.0 0.00 2.49 0.10 59 1013.4
20260902223131 28 0 0.0 4.8 0.00 2.46 0.08 61 1011.1
20260902223029 28 190 0.0 3.2 0.00 2.49 0.10 61 1013.4
20260902222528 28 190 0.0 4.8 0.00 2.49 0.10 63 1013.5
20260902222028 27 190 0.0 4.8 0.00 2.49 0.10 66 1013.5
20260902221619 27 0 1.6 6.4 0.00 2.46 0.08 65 1011.3
20260902221527 27 190 1.6 4.8 0.00 2.49 0.10 65 1013.5
20260902221026 27 190 1.6 6.4 0.00 2.49 0.10 65 1013.6
20260902220530 27 190 3.2 9.7 0.00 2.49 0.10 64 1013.6
20260902220109 27 190 3.2 9.7 0.00 2.46 0.08 64 1011.4
20260902220026 27 190 3.2 9.7 0.00 2.49 0.10 64 1013.7
20260902215529 28 190 3.2 9.7 0.00 2.49 0.10 64 1013.8
20260902215024 28 190 0.0 4.8 0.00 2.49 0.10 65 1013.9
20260902214614 28 0 0.0 4.8 0.00 2.46 0.08 63 1011.6
20260902214528 28 190 0.0 4.8 0.00 2.49 0.10 63 1014.0
20260902214021 27 190 0.0 6.4 0.00 2.49 0.10 65 1014.1
20260902213520 27 190 1.6 6.4 0.00 2.49 0.10 64 1014.3
20260902213108 27 190 0.0 4.8 0.00 2.46 0.08 64 1012.0
20260902213025 27 190 1.6 4.8 0.00 2.49 0.10 64 1014.4
20260902212518 27 190 0.0 4.8 0.00 2.49 0.10 65 1014.4
20260902212017 27 190 0.0 4.8 0.00 2.49 0.10 67 1014.5
20260902211614 27 0 3.2 4.8 0.00 2.46 0.08 66 1012.4
20260902211518 27 190 1.6 4.8 0.00 2.49 0.10 67 1014.6
20260902211017 26 190 0.0 3.2 0.00 2.49 0.10 66 1014.6
20260902210514 26 190 1.6 6.4 0.00 2.49 0.10 66 1014.6
20260902210106 27 190 0.0 4.8 0.00 2.46 0.08 66 1012.4
20260902210021 26 190 0.0 6.4 0.00 2.49 0.10 68 1014.6
20260902205517 26 190 0.0 4.8 0.00 2.49 0.10 68 1014.7
20260902205012 26 190 0.0 4.8 0.00 2.49 0.10 69 1014.7
20260902204603 26 0 1.6 8.0 0.00 2.46 0.08 66 1012.7
20260902204511 26 190 0.0 8.0 0.00 2.49 0.10 69 1014.9
20260902204010 26 190 1.6 8.0 0.00 2.49 0.10 71 1015.0
20260902203508 26 190 0.0 3.2 0.00 2.49 0.10 67 1015.2
20260902203110 26 0 0.0 3.2 0.00 2.46 0.08 70 1013.1
20260902203007 26 190 0.0 3.2 0.00 2.49 0.10 71 1015.3
20260902202506 26 190 0.0 6.4 0.00 2.49 0.10 69 1015.4
20260902202005 26 190 1.6 6.4 0.00 2.49 0.10 67 1015.6
20260902201634 26 190 0.0 4.8 0.00 2.46 0.08 69 1013.6
20260902201504 26 190 0.0 4.8 0.00 2.49 0.10 70 1015.7
20260902201004 26 190 0.0 3.2 0.00 2.49 0.10 71 1015.9
20260902200502 25 190 0.0 3.2 0.00 2.49 0.10 70 1016.0
20260902200120 26 190 0.0 1.6 0.00 2.46 0.08 69 1013.9
20260902200004 26 190 0.0 1.6 0.00 2.49 0.10 69 1016.1
20260902195600 25 190 0.0 0.0 0.00 2.49 0.10 70 1016.2
20260902195159 25 190 0.0 3.2 0.00 2.49 0.10 73 1016.4
20260902194602 25 0 0.0 4.8 0.00 2.46 0.08 71 1014.3
20260902194557 25 190 0.0 3.2 0.00 2.49 0.10 71 1016.5
20260902194056 25 190 0.0 4.8 0.00 2.49 0.10 74 1016.7
20260902193555 25 190 0.0 3.2 0.00 2.49 0.10 72 1016.7
20260902193108 25 0 0.0 0.0 0.00 2.46 0.08 73 1014.7
20260902193054 25 190 0.0 0.0 0.00 2.49 0.10 73 1016.8
20260902192552 24 190 0.0 1.6 0.00 2.49 0.10 74 1016.9
20260902192056 24 190 0.0 3.2 0.00 2.49 0.10 74 1017.0
20260902191605 24 190 0.0 3.2 0.00 2.46 0.08 74 1014.7
20260902191558 24 190 0.0 3.2 0.00 2.49 0.10 75 1017.0
20260902191050 24 190 0.0 3.2 0.00 2.49 0.10 75 1017.2
20260902190550 24 190 0.0 4.8 0.00 2.49 0.10 74 1017.3
20260902190105 24 0 0.0 4.8 0.00 2.46 0.08 73 1015.1
20260902190053 24 190 0.0 4.8 0.00 2.49 0.10 75 1017.4
20260902185547 24 190 0.0 4.8 0.00 2.49 0.10 74 1017.6
20260902185047 23 190 1.6 4.8 0.00 2.49 0.10 75 1017.6
20260902184600 23 0 1.6 8.0 0.00 2.46 0.08 75 1015.3
20260902184549 23 190 0.0 8.0 0.00 2.49 0.10 76 1017.7
20260902184044 24 190 1.6 8.0 0.00 2.49 0.10 75 1017.9
20260902183543 23 190 0.0 4.8 0.00 2.49 0.10 77 1018.0
20260902183110 23 190 3.2 6.4 0.00 2.46 0.08 77 1015.6
20260902183042 23 190 1.6 6.4 0.00 2.49 0.10 77 1018.1
20260902182541 23 190 1.6 6.4 0.00 2.49 0.10 76 1018.2
20260902182043 23 190 1.6 6.4 0.00 2.49 0.10 78 1018.3
20260902181622 23 190 0.0 8.0 0.00 2.46 0.08 77 1015.9
20260902181541 23 190 0.0 6.4 0.00 2.49 0.10 78 1018.4
20260902181038 23 190 1.6 8.0 0.00 2.49 0.10 78 1018.6
20260902180538 23 190 4.8 9.7 0.00 2.49 0.10 78 1018.7
20260902180104 23 190 4.8 9.7 0.00 2.46 0.08 77 1016.3
20260902180042 23 190 3.2 9.7 0.00 2.49 0.10 77 1018.7
20260902175538 23 190 1.6 9.7 0.00 2.49 0.10 78 1018.8
20260902175037 23 190 1.6 9.7 0.00 2.49 0.10 78 1019.0
20260902174621 23 190 3.2 9.7 0.00 2.46 0.08 77 1016.6
20260902174537 23 190 3.2 8.0 0.00 2.49 0.10 77 1019.1
20260902174037 23 190 0.0 9.7 0.00 2.49 0.10 77 1019.3
20260902173538 23 190 3.2 9.7 0.00 2.49 0.10 77 1019.3
20260902173125 23 190 4.8 9.7 0.00 2.46 0.08 76 1017.0
20260902173039 23 190 1.6 9.7 0.00 2.49 0.10 77 1019.4
20260902172536 23 190 3.2 11.3 0.00 2.49 0.10 76 1019.4
20260902172037 23 190 3.2 11.3 0.00 2.49 0.10 77 1019.5
20260902171630 23 190 4.8 11.3 0.00 2.46 0.08 76 1017.2
20260902171540 23 190 4.8 11.3 0.00 2.49 0.10 76 1019.5
20260902171037 23 190 1.6 9.7 0.00 2.49 0.10 79 1019.5
20260902170534 23 190 3.2 9.7 0.00 2.49 0.10 79 1019.5
20260902170123 23 190 3.2 8.0 0.00 2.46 0.08 79 1017.3
20260902170033 23 190 1.6 9.7 0.00 2.49 0.10 79 1019.6